Satellite: INMARSAT 3-F1
Catalog number: 23839
Epoch time:      103013.71118678
Element set:     849 
Inclination:        0.0470 deg
RA of node:        11.7908 deg
Eccentricity:    0.0005070
Arg of perigee:   300.5570 deg
Mean anomaly:     120.2903 deg
Mean motion:    1.00273062 rev/day
Decay rate:    3.6000E-007 rev/day^2
Epoch rev:            2485
Checksum:              248

Satellite: ASTRA 1F
Catalog number: 23842
Epoch time:      103013.00000000
Element set:     556 
Inclination:        0.0122 deg
RA of node:       319.8851 deg
Eccentricity:    0.0002995
Arg of perigee:    65.1991 deg
Mean anomaly:     106.1837 deg
Mean motion:    1.00273184 rev/day
Decay rate:    1.3899E-006 rev/day^2
Epoch rev:            2475
Checksum:              254

Satellite: JAS 2
Catalog number: 24278
Epoch time:      103015.44755404
Element set:     553 
Inclination:       98.5274 deg
RA of node:       171.3064 deg
Eccentricity:    0.0350284
Arg of perigee:   305.0640 deg
Mean anomaly:      51.8105 deg
Mean motion:   13.52869265 rev/day
Decay rate:    3.6000E-007 rev/day^2
Epoch rev:           31669
Checksum:              292

Satellite: UNAMSAT
Catalog number: 24305
Epoch time:      103014.88409927
Element set:     654 
Inclination:       82.9284 deg
RA of node:       288.4251 deg
Eccentricity:    0.0029788
Arg of perigee:   304.0959 deg
Mean anomaly:      55.7360 deg
Mean motion:   13.73447983 rev/day
Decay rate:    2.0499E-006 rev/day^2
Epoch rev:           31872
Checksum:              345

Satellite: INMARSAT 3-F2
Catalog number: 24307
Epoch time:      103012.98737270
Element set:     70 
Inclination:        0.0552 deg
RA of node:         5.5545 deg
Eccentricity:    0.0004747
Arg of perigee:   290.4543 deg
Mean anomaly:     155.9786 deg
Mean motion:    1.00272725 rev/day
Decay rate:   -1.0400E-006 rev/day^2
Epoch rev:            2325
Checksum:              370

Satellite: HOT BIRD 2
Catalog number: 24665
Epoch time:      103013.80550721
Element set:     339 
Inclination:        0.0284 deg
RA of node:       278.7326 deg
Eccentricity:    0.0008090
Arg of perigee:    44.5257 deg
Mean anomaly:      92.5403 deg
Mean motion:    1.00273403 rev/day
Decay rate:    1.0700E-006 rev/day^2
Epoch rev:            2290
Checksum:              247

Satellite: INMARSAT 3-F3
Catalog number: 24674
Epoch time:      103014.36401833
Element set:     968 
Inclination:        0.0633 deg
RA of node:       309.5606 deg
Eccentricity:    0.0004204
Arg of perigee:   346.3192 deg
Mean anomaly:     126.6937 deg
Mean motion:    1.00270016 rev/day
Decay rate:    5.9000E-007 rev/day^2
Epoch rev:            2223
Checksum:              258

Satellite: GOES 10
Catalog number: 24786
Epoch time:      103013.36628213
Element set:     500 
Inclination:        0.0511 deg
RA of node:       112.4014 deg
Eccentricity:    0.0003104
Arg of perigee:   206.6941 deg
Mean anomaly:     149.9641 deg
Mean motion:    1.00279596 rev/day
Decay rate:    1.0700E-006 rev/day^2
Epoch rev:            2097
Checksum:              241

Satellite: INMARSAT 3-F4
Catalog number: 24819
Epoch time:      103013.17016638
Element set:     865 
Inclination:        0.0686 deg
RA of node:       297.8154 deg
Eccentricity:    0.0003903
Arg of perigee:   358.0496 deg
Mean anomaly:     183.5915 deg
Mean motion:    1.00271479 rev/day
Decay rate:   -2.6600E-006 rev/day^2
Epoch rev:            2064
Checksum:              408

Satellite: FENGYUN 2A
Catalog number: 24834
Epoch time:      103008.98957809
Element set:     942 
Inclination:        2.4721 deg
RA of node:        88.7751 deg
Eccentricity:    0.0002867
Arg of perigee:   256.9049 deg
Mean anomaly:     204.9633 deg
Mean motion:    1.00265824 rev/day
Decay rate:   -1.8800E-006 rev/day^2
Epoch rev:            2043
Checksum:              311

Satellite: HOT BIRD 3
Catalog number: 24931
Epoch time:      103013.80550721
Element set:     420 
Inclination:        0.0673 deg
RA of node:       233.2523 deg
Eccentricity:    0.0010443
Arg of perigee:   100.7649 deg
Mean anomaly:      81.7511 deg
Mean motion:    1.00274844 rev/day
Decay rate:    1.0700E-006 rev/day^2
Epoch rev:            1972
Checksum:              232

Satellite: METEOSAT 7
Catalog number: 24932
Epoch time:      103013.20133103
Element set:     226 
Inclination:        0.1322 deg
RA of node:        40.9545 deg
Eccentricity:    0.0001236
Arg of perigee:   223.2714 deg
Mean anomaly:     280.4269 deg
Mean motion:    1.00272822 rev/day
Decay rate:    1.5000E-007 rev/day^2
Epoch rev:            1965
Checksum:              223

Satellite: ASTRA 1G
Catalog number: 25071
Epoch time:      103013.00000000
Element set:     387 
Inclination:        0.0122 deg
RA of node:       319.8851 deg
Eccentricity:    0.0002995
Arg of perigee:    65.1991 deg
Mean anomaly:     106.1633 deg
Mean motion:    1.00273184 rev/day
Decay rate:    1.3899E-006 rev/day^2
Epoch rev:            1877
Checksum:              251

Satellite: INMARSAT 3-F5
Catalog number: 25153
Epoch time:      103015.13392362
Element set:     832 
Inclination:        0.4468 deg
RA of node:       357.8654 deg
Eccentricity:    0.0003784
Arg of perigee:   313.2227 deg
Mean anomaly:     236.2746 deg
Mean motion:    1.00276015 rev/day
Decay rate:    1.6100E-006 rev/day^2
Epoch rev:            1815
Checksum:              268

Satellite: HOT BIRD 4
Catalog number: 25237
Epoch time:      103013.80550721
Element set:     325 
Inclination:        0.0242 deg
RA of node:       116.4838 deg
Eccentricity:    0.0007929
Arg of perigee:   193.6371 deg
Mean anomaly:     105.7449 deg
Mean motion:    1.00276095 rev/day
Decay rate:    1.0700E-006 rev/day^2
Epoch rev:            1818
Checksum:              265

Satellite: NOAA 15
Catalog number: 25338
Epoch time:      103014.96357806
Element set:     969 
Inclination:       98.5512 deg
RA of node:        38.0512 deg
Eccentricity:    0.0011343
Arg of perigee:    60.3629 deg
Mean anomaly:     299.8679 deg
Mean motion:   14.24227266 rev/day
Decay rate:    2.2199E-006 rev/day^2
Epoch rev:           24287
Checksum:              336

Satellite: RESURS O1-N4
Catalog number: 25394
Epoch time:      103015.55453539
Element set:     424 
Inclination:       98.6364 deg
RA of node:        94.1013 deg
Eccentricity:    0.0001188
Arg of perigee:   172.5340 deg
Mean anomaly:     187.5858 deg
Mean motion:   14.23864127 rev/day
Decay rate:    2.0400E-006 rev/day^2
Epoch rev:           23469
Checksum:              306

Satellite: TMSAT
Catalog number: 25396
Epoch time:      103014.25082534
Element set:     813 
Inclination:       98.6332 deg
RA of node:        92.0441 deg
Eccentricity:    0.0002414
Arg of perigee:   203.9362 deg
Mean anomaly:     156.1711 deg
Mean motion:   14.23497681 rev/day
Decay rate:   -4.3000E-007 rev/day^2
Epoch rev:           23450
Checksum:              266

Satellite: TECHSAT 1B
Catalog number: 25397
Epoch time:      103013.97768394
Element set:     108 
Inclination:       98.6279 deg
RA of node:        90.6984 deg
Eccentricity:    0.0000477
Arg of perigee:   222.8680 deg
Mean anomaly:     137.2463 deg
Mean motion:   14.22950412 rev/day
Decay rate:    8.3999E-007 rev/day^2
Epoch rev:           23443
Checksum:              347

Satellite: ASTRA 2A
Catalog number: 25462
Epoch time:      103013.00000000
Element set:     528 
Inclination:        0.0385 deg
RA of node:       308.7109 deg
Eccentricity:    0.0004824
Arg of perigee:   280.8620 deg
Mean anomaly:     270.7162 deg
Mean motion:    1.00272094 rev/day
Decay rate:    1.6899E-006 rev/day^2
Epoch rev:            1607
Checksum:              243

Satellite: EUTELSAT W2
Catalog number: 25491
Epoch time:      103014.86602446
Element set:     563 
Inclination:        0.0549 deg
RA of node:       108.2698 deg
Eccentricity:    0.0003751
Arg of perigee:   185.3971 deg
Mean anomaly:     148.0128 deg
Mean motion:    1.00274950 rev/day
Decay rate:    1.2399E-006 rev/day^2
Epoch rev:            1570
Checksum:              287

Satellite: HOT BIRD 5
Catalog number: 25495
Epoch time:      103015.13542825
Element set:     492 
Inclination:        0.0349 deg
RA of node:       198.9702 deg
Eccentricity:    0.0009463
Arg of perigee:    93.1649 deg
Mean anomaly:     263.9846 deg
Mean motion:    1.00277875 rev/day
Decay rate:    1.7500E-006 rev/day^2
Epoch rev:            1567
Checksum:              312

Satellite: SEDSAT 1
Catalog number: 25509
Epoch time:      103015.24212428
Element set:     757 
Inclination:       31.4340 deg
RA of node:       347.0096 deg
Eccentricity:    0.0357876
Arg of perigee:     3.1261 deg
Mean anomaly:     357.1502 deg
Mean motion:   14.27372412 rev/day
Decay rate:    1.7180E-005 rev/day^2
Epoch rev:           22040
Checksum:              261

Satellite: PAN SAT
Catalog number: 25520
Epoch time:      103014.35368983
Element set:     629 
Inclination:       28.4586 deg
RA of node:        98.3779 deg
Eccentricity:    0.0005347
Arg of perigee:   329.9011 deg
Mean anomaly:      30.1302 deg
Mean motion:   15.13692147 rev/day
Decay rate:    3.9610E-005 rev/day^2
Epoch rev:           23224
Checksum:              298

Satellite: ISS (ZARYA)
Catalog number: 25544
Epoch time:      103015.50469506
Element set:     585 
Inclination:       51.6359 deg
RA of node:        67.2150 deg
Eccentricity:    0.0005600
Arg of perigee:    36.2344 deg
Mean anomaly:     103.4087 deg
Mean motion:   15.59136754 rev/day
Decay rate:    3.0216E-004 rev/day^2
Epoch rev:           23718
Checksum:              280

